User: anonymous   Login
Location: Coupvray
(48.8929°N, 2.7967°E)
Time: 21:57:10
(UTC+00:00)
Language:

Cosmos 1666 Rocket - Orbit

View from above orbital plane
View from above orbital plane
View from above satellite
View from above satellite

Ground track
Ground track

The orbit data is extracted from the following two-line orbital elements,

1 15890U 85058B   20263.35444593 +.00000048 +00000-0 +29441-5 0  9996
2 15890 082.5263 226.7984 0019309 255.6746 257.2771 14.83441980880184
Epoch (UTC): 19 September 2020 08:30:24
Eccentricity: 0.0019309
inclination: 82.5263°
perigee height: 605 km
apogee height: 632 km
right ascension of ascending node: 226.7984°
argument of perigee: 255.6746°
revolutions per day: 14.83441980
mean anomaly at epoch: 257.2771°
orbit number at epoch: 88018

The dashed part of the orbit path shows where the satellite is in the earth's shadow,  

DLR